PSCRJ SNLO-SBGW

Flight info

Callsign PSCRJ
Flight time 0h 41m
Altitude 6500
Route DCT 2212S04401W DCT 2226S04459W DCT
Aircraft S76/M-SDFGR/S

Departure

Time 2026-05-08 23:25
Airport São Lourenço Airport (SNLO)

Arrival

Time 2026-05-09 00:06
Airport Edu Chaves Field (SBGW)
Time Latitude Longitude Altitude Speed Heading
2026-05-08 23:19 -22.09385 -45.04613 2875 ft 0 kts 30°
2026-05-08 23:24 -22.09365 -45.04602 2917 ft 11 kts 27°
2026-05-08 23:24 -22.09248 -45.04579 2931 ft 16 kts 25°
2026-05-08 23:24 -22.09220 -45.04561 2936 ft 2 kts 27°
2026-05-08 23:24 -22.09216 -45.04561 3180 ft 14 kts 25°
2026-05-08 23:25 -22.09068 -45.04326 3729 ft 59 kts 47°
2026-05-08 23:25 -22.08906 -45.03723 4165 ft 110 kts 72°
2026-05-08 23:25 -22.08655 -45.02774 4092 ft 146 kts 68°
2026-05-08 23:25 -22.08358 -45.01727 3933 ft 143 kts 69°
2026-05-08 23:26 -22.08092 -45.00747 4161 ft 122 kts 70°
2026-05-08 23:26 -22.07889 -44.99951 4962 ft 100 kts 71°
2026-05-08 23:26 -22.07709 -44.99281 5842 ft 87 kts 70°
2026-05-08 23:26 -22.07542 -44.98698 6689 ft 83 kts 70°
2026-05-08 23:27 -22.07307 -44.97918 6851 ft 132 kts 69°
2026-05-08 23:27 -22.06998 -44.96914 6612 ft 147 kts 69°
2026-05-08 23:27 -22.06686 -44.95890 6520 ft 141 kts 70°
2026-05-08 23:27 -22.06381 -44.94885 6510 ft 140 kts 70°
2026-05-08 23:28 -22.06075 -44.93882 6507 ft 141 kts 70°
2026-05-08 23:28 -22.05764 -44.92872 6506 ft 142 kts 70°
2026-05-08 23:28 -22.05450 -44.91864 6502 ft 142 kts 70°
2026-05-08 23:28 -22.05136 -44.90850 6505 ft 143 kts 70°
2026-05-08 23:29 -22.04821 -44.89834 6505 ft 143 kts 70°
2026-05-08 23:29 -22.04507 -44.88821 6504 ft 143 kts 70°
2026-05-08 23:29 -22.04193 -44.87806 6505 ft 143 kts 70°
2026-05-08 23:29 -22.03878 -44.86789 6501 ft 143 kts 70°
2026-05-08 23:30 -22.03564 -44.85776 6502 ft 143 kts 70°
2026-05-08 23:30 -22.03248 -44.84757 6501 ft 143 kts 70°
2026-05-08 23:30 -22.02935 -44.83742 6502 ft 143 kts 70°
2026-05-08 23:30 -22.02620 -44.82724 6504 ft 143 kts 70°
2026-05-08 23:31 -22.02305 -44.81707 6504 ft 143 kts 70°
2026-05-08 23:31 -22.01990 -44.80693 6502 ft 143 kts 70°
2026-05-08 23:31 -22.01737 -44.79660 6485 ft 142 kts 84°
2026-05-08 23:31 -22.02041 -44.78711 6507 ft 138 kts 128°
2026-05-08 23:32 -22.02865 -44.78206 6516 ft 139 kts 165°
2026-05-08 23:32 -22.03843 -44.78015 6508 ft 144 kts 169°
2026-05-08 23:32 -22.04833 -44.77831 6502 ft 144 kts 169°
2026-05-08 23:32 -22.05823 -44.77668 6502 ft 144 kts 170°
2026-05-08 23:33 -22.06818 -44.77506 6503 ft 144 kts 170°
2026-05-08 23:33 -22.07806 -44.77348 6504 ft 144 kts 170°
2026-05-08 23:33 -22.08801 -44.77189 6506 ft 145 kts 170°
2026-05-08 23:33 -22.09791 -44.77031 6505 ft 145 kts 170°
2026-05-08 23:34 -22.10791 -44.76872 6503 ft 144 kts 170°
2026-05-08 23:34 -22.11767 -44.76717 6580 ft 135 kts 170°
2026-05-08 23:34 -22.12648 -44.76580 7083 ft 123 kts 170°
2026-05-08 23:34 -22.13491 -44.76449 7599 ft 130 kts 170°
2026-05-08 23:35 -22.14454 -44.76291 7505 ft 140 kts 170°
2026-05-08 23:35 -22.15402 -44.76137 7640 ft 124 kts 171°
2026-05-08 23:35 -22.16151 -44.76018 8461 ft 95 kts 171°
2026-05-08 23:35 -22.16862 -44.75901 8926 ft 128 kts 170°
2026-05-08 23:36 -22.17823 -44.75741 8601 ft 146 kts 170°
2026-05-08 23:36 -22.18828 -44.75575 8312 ft 139 kts 170°
2026-05-08 23:36 -22.19743 -44.75428 8466 ft 137 kts 170°
2026-05-08 23:36 -22.20742 -44.75263 8226 ft 145 kts 170°
2026-05-08 23:37 -22.21690 -44.75110 8381 ft 134 kts 170°
2026-05-08 23:37 -22.22623 -44.74959 8509 ft 140 kts 170°
2026-05-08 23:37 -22.23586 -44.74802 8506 ft 140 kts 170°
2026-05-08 23:37 -22.24549 -44.74645 8504 ft 140 kts 170°
2026-05-08 23:38 -22.25513 -44.74489 8502 ft 140 kts 170°
2026-05-08 23:38 -22.26478 -44.74397 8485 ft 139 kts 184°
2026-05-08 23:38 -22.27382 -44.74719 8513 ft 141 kts 202°
2026-05-08 23:38 -22.28288 -44.75111 8508 ft 141 kts 200°
2026-05-08 23:39 -22.29192 -44.75505 8506 ft 140 kts 201°
2026-05-08 23:39 -22.30086 -44.75919 8500 ft 140 kts 206°
2026-05-08 23:39 -22.30721 -44.76655 8511 ft 135 kts 245°
2026-05-08 23:39 -22.31030 -44.77648 8497 ft 140 kts 251°
2026-05-08 23:40 -22.31343 -44.78650 8495 ft 141 kts 251°
2026-05-08 23:40 -22.31639 -44.79661 8498 ft 142 kts 252°
2026-05-08 23:40 -22.31932 -44.80671 8501 ft 142 kts 252°
2026-05-08 23:40 -22.32225 -44.81683 8505 ft 142 kts 252°
2026-05-08 23:41 -22.32518 -44.82695 8505 ft 141 kts 252°
2026-05-08 23:41 -22.32803 -44.83707 8504 ft 140 kts 252°
2026-05-08 23:41 -22.33085 -44.84716 8501 ft 140 kts 252°
2026-05-08 23:41 -22.33371 -44.85720 8502 ft 141 kts 251°
2026-05-08 23:42 -22.33695 -44.86716 8502 ft 140 kts 249°
2026-05-08 23:42 -22.34023 -44.87704 8502 ft 140 kts 249°
2026-05-08 23:42 -22.34353 -44.88696 8502 ft 140 kts 249°
2026-05-08 23:42 -22.34683 -44.89688 8502 ft 140 kts 249°
2026-05-08 23:43 -22.35013 -44.90680 8502 ft 140 kts 249°
2026-05-08 23:43 -22.35366 -44.91659 8501 ft 141 kts 245°
2026-05-08 23:43 -22.35843 -44.92577 8503 ft 140 kts 235°
2026-05-08 23:43 -22.36501 -44.93348 8499 ft 139 kts 216°
2026-05-08 23:44 -22.37330 -44.93893 8497 ft 141 kts 208°
2026-05-08 23:44 -22.38175 -44.94422 8499 ft 141 kts 208°
2026-05-08 23:44 -22.39028 -44.94945 8501 ft 141 kts 208°
2026-05-08 23:44 -22.39875 -44.95461 8502 ft 141 kts 208°
2026-05-08 23:45 -22.40729 -44.95981 8502 ft 141 kts 208°
2026-05-08 23:45 -22.41583 -44.96501 8505 ft 142 kts 208°
2026-05-08 23:45 -22.42450 -44.97026 8502 ft 143 kts 208°
2026-05-08 23:45 -22.43323 -44.97553 8504 ft 144 kts 208°
2026-05-08 23:46 -22.44197 -44.98082 8505 ft 144 kts 208°
2026-05-08 23:46 -22.45067 -44.98608 8428 ft 142 kts 208°
2026-05-08 23:46 -22.45926 -44.99129 8365 ft 141 kts 208°
2026-05-08 23:46 -22.46781 -44.99650 8309 ft 142 kts 208°
2026-05-08 23:47 -22.47643 -45.00179 8252 ft 144 kts 208°
2026-05-08 23:47 -22.48507 -45.00761 8157 ft 148 kts 209°
2026-05-08 23:47 -22.49355 -45.01375 8029 ft 146 kts 209°
2026-05-08 23:47 -22.50183 -45.01993 7906 ft 143 kts 210°
2026-05-08 23:48 -22.51007 -45.02549 7891 ft 139 kts 207°
2026-05-08 23:48 -22.51849 -45.03068 7879 ft 140 kts 207°
2026-05-08 23:48 -22.52693 -45.03584 7848 ft 140 kts 208°
2026-05-08 23:48 -22.53541 -45.04101 7814 ft 140 kts 208°
2026-05-08 23:49 -22.54387 -45.04615 7779 ft 139 kts 208°
2026-05-08 23:49 -22.55232 -45.05128 7746 ft 139 kts 208°
2026-05-08 23:49 -22.56074 -45.05640 7716 ft 139 kts 208°
2026-05-08 23:49 -22.56910 -45.06147 7688 ft 138 kts 208°
2026-05-08 23:50 -22.57749 -45.06658 7662 ft 138 kts 208°
2026-05-08 23:50 -22.58586 -45.07167 7638 ft 138 kts 208°
2026-05-08 23:50 -22.59421 -45.07676 7603 ft 137 kts 208°
2026-05-08 23:50 -22.60242 -45.08177 7532 ft 135 kts 208°
2026-05-08 23:51 -22.61064 -45.08679 7485 ft 135 kts 208°
2026-05-08 23:51 -22.61882 -45.09179 7435 ft 135 kts 208°
2026-05-08 23:51 -22.62704 -45.09681 7388 ft 135 kts 208°
2026-05-08 23:51 -22.63523 -45.10182 7341 ft 136 kts 208°
2026-05-08 23:52 -22.64196 -45.10593 7304 ft 136 kts 208°
2026-05-09 00:00 -22.64465 -45.10757 7292 ft 138 kts 208°
2026-05-09 00:00 -22.65302 -45.11295 7122 ft 140 kts 208°
2026-05-09 00:01 -22.66104 -45.11857 6908 ft 135 kts 209°
2026-05-09 00:01 -22.66890 -45.12397 6715 ft 133 kts 208°
2026-05-09 00:01 -22.67675 -45.12925 6528 ft 133 kts 208°
2026-05-09 00:01 -22.68458 -45.13450 6341 ft 132 kts 208°
2026-05-09 00:02 -22.69236 -45.13967 6161 ft 131 kts 208°
2026-05-09 00:02 -22.70013 -45.14477 5984 ft 131 kts 208°
2026-05-09 00:02 -22.70793 -45.14982 5810 ft 130 kts 208°
2026-05-09 00:02 -22.71573 -45.15483 5639 ft 130 kts 208°
2026-05-09 00:03 -22.72354 -45.15984 5470 ft 130 kts 208°
2026-05-09 00:03 -22.73123 -45.16502 5300 ft 131 kts 213°
2026-05-09 00:03 -22.73815 -45.17137 5133 ft 131 kts 220°
2026-05-09 00:03 -22.74494 -45.17796 4972 ft 131 kts 220°
2026-05-09 00:04 -22.75169 -45.18455 4812 ft 131 kts 220°
2026-05-09 00:04 -22.75843 -45.19116 4653 ft 131 kts 220°
2026-05-09 00:04 -22.76530 -45.19626 4151 ft 102 kts 192°
2026-05-09 00:04 -22.77079 -45.19730 3466 ft 69 kts 176°
2026-05-09 00:05 -22.77590 -45.19693 3040 ft 89 kts 173°
2026-05-09 00:05 -22.78291 -45.19613 2753 ft 107 kts 170°
2026-05-09 00:05 -22.78998 -45.19500 2588 ft 99 kts 170°
2026-05-09 00:05 -22.79649 -45.19458 2342 ft 93 kts 188°
2026-05-09 00:06 -22.80081 -45.19841 2231 ft 79 kts 263°
2026-05-09 00:06 -22.79906 -45.20386 1977 ft 74 kts 317°
2026-05-09 00:06 -22.79636 -45.20557 1792 ft 13 kts 340°
2026-05-09 00:06 -22.79624 -45.20550 1765 ft 0 kts 342°